Flag for Guinea Weather past 2 weeks in Nzérékoré, Guinea

Now
73 °F

Thunderstorms. Partly cloudy.


Feels Like: 70 °F
Forecast: 71 / 89 °F
Wind: No wind

Location: Roberts Field

Current Time: May 23, 2015 at 4:50:16 AM

Latest Report: May 23, 2015 at 2:30 AM


Visibility: 5 mi

Pressure: 29.98 "Hg

Humidity: 94%

Dew point: 72 °F

Location of NzérékoréLocation

Historic Weather in Nzérékoré — Graph

°F

Nzérékoré temperature yesterday

Maximum temperature yesterday: 90 °F (at 11:30 AM)
Minimum temperature yesterday: 77 °F (at 12:30 AM)
Average temperature yesterday: 85 °F

Past Weeks' High & Low Weather Summary

 TemperatureHumidityPressure
High93 °F (May 18, 1:30 PM)100% (May 13, 2:00 AM)29.98 "Hg (May 13, 2:00 AM)
Low72 °F (May 15, 6:00 AM)56% (May 18, 1:30 PM)29.80 "Hg (May 11, 5:00 PM)
Average82 °F83%29.89 "Hg
* Reported May 8 10:30 AM — May 23 2:30 AM, Nzérékoré, Weather by CustomWeather, © 2015

Note: Actual official high and low records may vary slightly from our data, if they occured in-between our weather recording intervals... More about our weather records

Advertising

Nzérékoré weather history for previous 24 hours

 ConditionsComfort  
Time TempWeatherWind HumidityBarometerVisibility
2:30 AM
Sat, May 23
73 °FThunderstorms. Partly cloudy.No wind94%29.98 "Hg5 mi
1:00 AM75 °FThunderstorms. Mostly cloudy.No wind94%29.98 "Hg5 mi
12:30 AM75 °FThunderstorms. Mostly cloudy.No wind94%29.98 "Hg5 mi
12:00 AM77 °FThunderstorms. Mostly cloudy.6 mph94%29.98 "Hg4 mi
11:30 PM
Fri, May 22
77 °FStrong thunderstorms. Low clouds.16 mph94%29.98 "Hg2 mi
11:00 PM77 °FStrong thunderstorms. Partly cloudy.25 mph94%29.98 "HgN/A
10:30 PM77 °FThunderstorms. Passing clouds.13 mph94%29.95 "HgN/A
10:00 PM77 °FStrong thunderstorms. Partly cloudy.30 mph94%29.95 "Hg2 mi
9:00 PM81 °FThunderstorms. Passing clouds.No wind94%29.92 "HgN/A
8:30 PM81 °FThunderstorms. Passing clouds.7 mph94%29.92 "HgN/A
8:00 PM82 °FPassing clouds.No wind84%29.92 "HgN/A
6:00 PM84 °FPartly sunny.12 mph79%29.89 "HgN/A
5:30 PM86 °FPartly sunny.10 mph75%29.89 "HgN/A
5:00 PM88 °FScattered clouds.16 mph75%29.86 "HgN/A
4:30 PM90 °FScattered clouds.15 mph67%29.89 "HgN/A
4:00 PM90 °FPartly sunny.13 mph67%29.86 "HgN/A
3:30 PM88 °FPartly sunny.14 mph70%29.89 "HgN/A
3:00 PM90 °FPartly sunny.14 mph67%29.89 "HgN/A
2:30 PM88 °FScattered clouds.12 mph75%29.92 "HgN/A
2:00 PM88 °FScattered clouds.9 mph75%29.92 "HgN/A
1:00 PM90 °FPartly sunny.9 mph67%29.95 "HgN/A
12:30 PM90 °FPartly sunny.12 mph67%29.95 "HgN/A
12:00 PM90 °FPartly sunny.3 mph67%29.95 "HgN/A
11:30 AM90 °FPartly sunny.8 mph67%29.98 "HgN/A
10:00 AM86 °FScattered clouds.7 mph79%29.98 "HgN/A
9:00 AM82 °FPartly sunny.No wind84%29.98 "HgN/A
Weather by CustomWeather, © 2015

See weather overviewHow to use our weather pages